Regional Weather Roundup
Issued by NWS

Home | Current Version | Previous Version | Text Only | Print | Product List | Glossary Off
Versions: 1 2 3 4 5 6 7 8 9 10 11 12 13 14 15 16 17 18 19 20 21 22 23 24 25 26 27 28 29 30 31 32 33 34 35 36 37 38 39 40 41 42 43 44 45 46 47 48 49 50

000
ASUS45 KABQ 220701
RWRNM
WEATHER ROUNDUP FOR NEW MEXICO
NATIONAL WEATHER SERVICE ALBUQUERQUE NM
100 AM MDT TUE JUL 22 2014

NOTE: "FAIR" MEANS FEW OR NO CLOUDS BELOW 12,000 FEET AGL WITH NO
       SIGNIFICANT WEATHER OR OBSTRUCTIONS TO VISION.

      THIS PRODUCT IS RELEASED AS TWO VERSIONS.  ONE VERSION NEAR
      THE TOP OF THE HOUR CONTAINING PRELIMINARY DATA FROM ALBUQUERQUE
      AND OTHER STATIONS.  A FINAL VERSION WITH ADDITIONAL DATA IS
      ISSUED ABOUT 10 MINUTES AFTER THE HOUR.

NMZ501-503-504-510>518-220800-
NORTHWEST PLATEAU/NORTHCENTRAL MOUNTAINS

CITY           SKY/WX    TMP DP  RH WIND       PRES   REMARKS
FARMINGTON     CLEAR     71  28  20 CALM      30.22R
LOS ALAMOS     MOCLDY    73  42  33 CALM      30.41S
SANTA FE       CLOUDY    73  49  42 E3        30.33R
TAOS           PTCLDY    61  45  55 N7        30.40F
ANGEL FIRE     FAIR      54  51  90 CALM      30.51F

$$
NMZ402-403-502-505>509-220800-
WESTCENTRAL MOUNTAINS/SOUTHWEST MOUNTAINS

CITY           SKY/WX    TMP DP  RH WIND       PRES   REMARKS
GALLUP         PTCLDY    70  38  31 S7        30.33S
GRANTS         MOCLDY    67  46  47 CALM      30.35S

$$
NMZ407-409-411-412-220800-
SOUTHERN DESERTS

CITY           SKY/WX    TMP DP  RH WIND       PRES   REMARKS
LORDSBURG      FAIR      81  46  30 SW7       30.14S
DEMING         PTCLDY    76  49  38 SW6       30.13F
LAS CRUCES     MOCLDY    78  50  37 W5        30.15F
HOLLOMAN AFB   CLEAR     83  51  32 W6        30.10F
T OR C         MOCLDY    83  49  30 NW9       30.17S

$$
NMZ519>523-220800-
CENTRAL VALLEYS/CENTRAL HIGHLANDS

CITY           SKY/WX    TMP DP  RH WIND       PRES   REMARKS
ALBUQUERQUE    CLOUDY    82  45  27 SE7       30.24R
DOUBLE EAGLE   CLOUDY    76  51  41 SE6       30.28R
MORIARTY ARPT  FAIR      71  51  48 SE5       30.34S
CLINES CORNERS CLOUDY    68  52  56 SE9       30.39R
BELEN          FAIR      78  47  33 SE5       30.22R
SOCORRO        MOCLDY    82  46  28 SW5       30.18S

$$
NMZ524>526-539-540-220800-
SOUTHCENTRAL MOUNTAINS

CITY           SKY/WX    TMP DP  RH WIND       PRES   REMARKS
RUIDOSO        NOT AVBL

$$
NMZ527>531-220800-
NORTHEAST HIGHLANDS/NORTHEAST PLAINS

CITY           SKY/WX    TMP DP  RH WIND       PRES   REMARKS
LAS VEGAS      CLOUDY    66  53  63 SW3       30.38S
RATON          MOCLDY    65  53  65 W5        30.33R
CLAYTON        CLEAR     65  59  81 CALM      30.25R

$$
NMZ532>537-220800-
EASTCENTRAL PLAINS

CITY           SKY/WX    TMP DP  RH WIND       PRES   REMARKS
TUCUMCARI      CLOUDY    70  64  81 SE24G33   30.19R
CANNON AFB     DRIZZLE   72  63  73 NE23G29   30.24R
CLOVIS AIRPORT NOT AVBL

$$
NMZ028-029-538-220800-
SOUTHEAST PLAINS

CITY           SKY/WX    TMP DP  RH WIND       PRES   REMARKS
ROSWELL        PTCLDY    75  58  55 S7        30.10S
ARTESIA        PTCLDY    77  59  53 S6        30.09F
CARLSBAD       MOCLDY    86  63  45 S10       30.07S
HOBBS          MOCLDY    81  57  44 S6        30.13F


$$



USA.gov is the U.S. government's official web portal to all federal, state and local government web resources and services.